Flag for Germany Weather past 2 weeks in Königs Wusterhausen, Brandenburg, Germany

Now
59 °F

Partly cloudy.


Feels Like: 56 °F
Forecast: 50 / 69 °F
Wind: 16 mph from Northwest

Location: Berlin-Schoenefeld

Current Time: Sep 2, 2015 at 3:12:32 AM

Latest Report: Sep 2, 2015 at 2:20 AM


Visibility: N/A

Pressure: 29.92 "Hg

Humidity: 88%

Dew point: 55 °F

Location of Königs WusterhausenLocation

Historic Weather in Königs Wusterhausen — Graph

°F

Königs Wusterhausen temperature yesterday

Maximum temperature yesterday: 84 °F (at 3:20 PM)
Minimum temperature yesterday: 61 °F (at 10:50 PM)
Average temperature yesterday: 73 °F

Past Weeks' High & Low Weather Summary

 TemperatureHumidityPressure
High95 °F (Aug 31, 3:20 PM)100% (Aug 20, 12:20 AM)30.30 "Hg (Aug 20, 12:20 AM)
Low52 °F (Aug 22, 6:20 AM)21% (Aug 22, 3:50 PM)29.68 "Hg (Sep 1, 4:50 PM)
Average68 °F65%30.01 "Hg
* Reported Aug 18 1:20 AM — Sep 2 1:50 AM, Königs Wusterhausen, Weather by CustomWeather, © 2015

Note: Actual official high and low records may vary slightly from our data, if they occured in-between our weather recording intervals... More about our weather records

Advertising

Königs Wusterhausen weather history for previous 24 hours

 ConditionsComfort  
Time TempWeatherWind HumidityBarometerVisibility
1:50 AM
Wed, Sep 2
61 °FPartly cloudy.14 mph83%29.92 "HgN/A
1:20 AM61 °FPartly cloudy.14 mph88%29.92 "HgN/A
12:50 AM61 °FPartly cloudy.14 mph88%29.92 "HgN/A
11:20 PM
Tue, Sep 1
61 °FPassing clouds.14 mph88%29.89 "HgN/A
10:50 PM61 °FPassing clouds.16 mph94%29.86 "HgN/A
10:20 PM63 °FPassing clouds.15 mph88%29.86 "HgN/A
9:50 PM63 °FPassing clouds.14 mph88%29.83 "HgN/A
9:20 PM63 °FLight rain. Passing clouds.16 mph88%29.83 "HgN/A
8:50 PM63 °FBroken clouds.15 mph88%29.83 "HgN/A
8:20 PM63 °FBroken clouds.15 mph88%29.80 "HgN/A
7:50 PM63 °FSprinkles. Broken clouds.21 mph88%29.80 "HgN/A
7:20 PM66 °FSprinkles. Broken clouds.15 mph88%29.77 "HgN/A
6:50 PM66 °FThunderstorms. Broken clouds.17 mph94%29.77 "HgN/A
6:20 PM70 °FThunderstorms. Partly sunny.23 mph78%29.74 "HgN/A
5:20 PM82 °FPassing clouds.10 mph51%29.68 "HgN/A
4:50 PM84 °FPassing clouds.8 mph48%29.68 "HgN/A
4:20 PM84 °FPassing clouds.6 mph48%29.71 "HgN/A
3:50 PM84 °FPassing clouds.10 mph48%29.71 "HgN/A
3:20 PM84 °FPassing clouds.9 mph48%29.71 "HgN/A
2:50 PM82 °FPassing clouds.9 mph48%29.71 "HgN/A
2:20 PM82 °FPassing clouds.10 mph51%29.74 "HgN/A
1:50 PM82 °FPassing clouds.5 mph55%29.74 "HgN/A
1:20 PM82 °FPassing clouds.7 mph51%29.74 "HgN/A
12:50 PM81 °FPassing clouds.9 mph54%29.74 "HgN/A
12:20 PM81 °FPassing clouds.8 mph54%29.74 "HgN/A
11:50 AM79 °FPassing clouds.9 mph61%29.77 "HgN/A
11:20 AM79 °FPassing clouds.10 mph58%29.74 "HgN/A
10:50 AM79 °FSunny.13 mph58%29.74 "Hg10 mi
10:20 AM77 °FSunny.13 mph61%29.77 "Hg10 mi
9:50 AM77 °FSunny.10 mph65%29.77 "Hg10 mi
9:20 AM75 °FSunny.14 mph65%29.74 "Hg10 mi
8:50 AM73 °FPassing clouds.10 mph74%29.74 "HgN/A
8:20 AM72 °FSunny.8 mph73%29.74 "Hg10 mi
7:50 AM70 °FSunny.8 mph78%29.74 "Hg10 mi
7:20 AM68 °FSunny.7 mph83%29.74 "Hg10 mi
6:50 AM66 °FClear.6 mph88%29.74 "Hg10 mi
5:20 AM70 °FPassing clouds.3 mph83%29.71 "HgN/A
4:50 AM68 °FClear.3 mph88%29.71 "Hg10 mi
4:20 AM68 °FPassing clouds.3 mph88%29.74 "HgN/A
3:50 AM70 °FPassing clouds.5 mph88%29.71 "HgN/A
3:20 AM72 °FClear.3 mph78%29.71 "Hg10 mi
Weather by CustomWeather, © 2015

See weather overviewHow to use our weather pages